Regional Weather Roundup
Issued by NWS

Home | Current Version | Previous Version | Text Only | Print | Product List | Glossary On
Versions: 1 2 3 4 5 6 7 8 9 10 11 12 13 14 15 16 17 18 19 20 21 22 23 24 25 26 27 28 29 30 31 32 33 34 35 36 37 38 39 40 41 42 43 44 45 46 47 48 49 50
000
ASUS43 KDTX 011110
RWRMI
MICHIGAN HOURLY REGIONAL WEATHER ROUNDUP
NATIONAL WEATHER SERVICE DETROIT/PONTIAC MI
700 AM EDT TUE SEP 01 2015

NOTE: "FAIR" INDICATES FEW OR NO CLOUDS BELOW 12,000 FEET WITH NO
SIGNIFICANT WEATHER AND/OR OBSTRUCTION TO VISIBILITY.

MIZ047>049-052>055-059>063-066>070-074>076-081>083-011200-
SOUTHEAST LOWER MICHIGAN

CITY           SKY/WX    TMP DP  RH WIND       PRES   REMARKS
ADRIAN         CLEAR     61  59  93 CALM      30.10R FOG
ALMA           FOG       59  59 100 CALM      30.08R VSB 1/4
ANN ARBOR      FOG       57  57 100 W3        30.09R VSB 1/2
BAD AXE        FOG       62  62 100 CALM      30.07S VSB 1/4
CARO           FOG       56  56 100 CALM      30.07R VSB 1/4
DETROIT CITY   CLEAR     66  64  93 CALM      30.09R FOG
DETROIT        PTCLDY    67  65  93 SE8       30.09R FOG
FLINT          CLEAR     62  60  93 CALM      30.09R FOG
GROSSE ILE     MOCLDY    70  66  88 CALM      30.08R FOG
HILLSDALE      CLEAR     66  66 100 CALM      30.11R FOG
HOWELL         FOG       64  64  99 CALM      30.09R VSB 3/4

CITY           SKY/WX    TMP DP  RH WIND       PRES   REMARKS
JACKSON        CLEAR     62  61  96 SW3       30.10R FOG
LAMBERTVILLE     N/A     64  62  93 CALM      30.10R FOG
LANSING        CLEAR     64  62  93 CALM      30.09R
LAPEER         FOG       55  55 100 CALM      30.09R VSB 1/2
MASON          FOG       63  61  92 CALM      30.09R VSB 3/4
MONROE         FOG       62  61  97 CALM      30.08R VSB 1/4
MT. CLEMENS    FOG       61  61 100 CALM      30.07R VSB 3/4
PONTIAC        CLEAR     61  60  97 CALM      30.09R FOG
PORT HOPE        N/A     64  63  96 CALM      30.05R
PORT HURON     FOG       55  55 100 CALM      30.09R VSB 1/4
TRI CITIES     FOG       63  61  93 SW3       30.08R VSB 1/4
MIDLAND        FOG       59  58  97 CALM      30.07R VSB 1/4
TROY           CLEAR     67  65  94 CALM      30.10R FOG
SAGINAW HB     FOG       59  59 100 S3        30.07R VSB 1/4
$$
MIZ043>046-050>051-056>058-064>065-071>073-077>080-011200-
SOUTHWEST LOWER MICHIGAN

CITY           SKY/WX    TMP DP  RH WIND       PRES   REMARKS
BATTLE CREEK   CLEAR     67  65  93 SW5       30.09R FOG
BENTON HARBOR  CLEAR     67  66  97 CALM      30.07R FOG
BIG RAPIDS     CLEAR     57  56  98 CALM      30.07R
COLDWATER        N/A     65  65 100 CALM      30.10S FOG
FREMONT        FOG       61  61 100 CALM      30.05S VSB 3/4
HOLLAND        CLEAR     66  64  93 CALM      30.07R FOG
GRAND RAPIDS   PTCLDY    65  64  97 CALM      30.07S FOG
IONIA            N/A     62  62 100 CALM      30.07S FOG
KALAMAZOO      CLEAR     66  64  93 CALM      30.09R FOG
LUDINGTON        N/A     62  60  93 CALM      30.04S FOG
MARSHALL       FOG       65  64  98 CALM      30.09S VSB 3/4
MOUNT PLEASANT FOG       60  58  94 CALM      30.06S VSB 1/4
MUSKEGON       PTCLDY    63  60  90 SE5       30.06R FOG
SOUTH HAVEN    CLEAR     67  66  96 CALM      30.07R FOG
$$
MIZ016>042-011200-
NORTHERN LOWER MICHIGAN

CITY           SKY/WX    TMP DP  RH WIND       PRES   REMARKS
ALPENA         CLEAR     62  60  93 CALM      30.04R
BEAVER ISLAND  CLEAR     67  65  96 SW10G16   30.01S FOG
BELLAIRE       MOCLDY    58  56  96 CALM      30.04R FOG
CADILLAC       FOG       56  55  96 CALM      30.07R VSB 1/4
CHARLEVOIX     CLEAR     66  65  97 CALM      30.05S FOG
FRANKFORT      CLEAR     69  65  90 CALM      30.03R
GAYLORD        CLOUDY    62  62 100 W5        30.06R FOG
GRAYLING       FOG       55  55  99 CALM      30.07R VSB 1
HARBOR SPRINGS PTCLDY    65  64  99 CALM      30.03R FOG
HOUGHTON LAKE  FOG       58  57  97 SW3       30.08R VSB 3/4
MANISTEE       CLEAR     59  55  88 E3        30.05R
OSCODA         FOG       59  59  99 CALM      30.04R VSB 3/4
PELLSTON       CLEAR     64  63  96 CALM      30.03R
ROGERS CITY    CLEAR     64  62  95 SW6       30.03S FOG
TRAVERSE CITY  CLEAR     64  61  90 CALM      30.02S
$$
MIZ007>008-015-011200-
EASTERN UPPER MICHIGAN

CITY           SKY/WX    TMP DP  RH WIND       PRES   REMARKS
KINROSS        CLOUDY    66  66 100 SW5       30.01R VSB 1
MACKINAC ISLAN CLOUDY    67  66  97 SW7       30.02R FOG
NEWBERRY       CLOUDY    66  66  99 SW9       29.99S FOG
S. S. MARIE    FOG       64  63  96 S3        30.00R VSB 1/2
MUNISING         N/A     71  66  84 SW10      29.95S
$$
MIZ004>006-011>014-085-011200-
CENTRAL UPPER MICHIGAN

CITY           SKY/WX    TMP DP  RH WIND       PRES   REMARKS
MANISTIQUE     MOCLDY    64  63  97 SW5       29.99R FOG
ESCANABA       CLOUDY    61  59  94 CALM      29.98R VSB<1/4
MENOMINEE      CLEAR     66  63  88 SW3       29.98S
SAWYER-GWINN   FOG       64  63  94 SW5       29.99R VSB 1/4
$$
MIZ001>003-009>011-084-011200-
WESTERN UPPER MICHIGAN

CITY           SKY/WX    TMP DP  RH WIND       PRES   REMARKS
IRON MOUNTAIN  CLEAR     63  62  97 CALM      29.98S FOG
HOUGHTON       FOG       65  64  97 CALM      29.91S VSB 1/4
IRONWOOD       PTCLDY    72  70  94 SW9       29.91R
$$

ABBREVIATIONS USED IN REMARKS
   TC - TEMPERATURE IN CELSIUS
  WCI - WIND CHILL INDEX
   HX - HEAT INDEX
  VSB - VISIBILITY



USA.gov is the U.S. government's official web portal to all federal, state and local government web resources and services.